Погода в Кальяо-Сальвахе

Испания     28°07′45″N   16°46′37″W
темп.,
°C
ветер,
м/с
пор.,
м/с
влажн.,
%
обл.,
%
осадки,
мм/ч
давл.,
гПа
погр.,
м
16 июня, ср
ср1601:00+15ссв33691 0.0 102191
04:00+14ссв23692 0.0 102081
07:00+14св33772 0.0 101963
10:00+18ссз22532 0.0 1019537
13:00+21ссз33502 0.0 1019865
16:00+21с235613 0.0 10181001
19:00+19с236618 0.1 1019694
22:00+16ссв23734 0.0 1020210
17 июня, чт
чт1701:00+15ссв22706 0.0 1021103
04:00+14всв128226 0.0 1020154
07:00+14св33654 0.0 102057
10:00+18св23510 0.0 1020515
13:00+20сз135422 0.0 1021748
16:00+19ссз236020 0.0 1020710
19:00+18с34575 0.0 1020569
22:00+16св34605 0.0 1021156
18 июня, пт
пт1801:00+15св23782 0.0 1021190
04:00+14всв238846 0.0 1020229
07:00+13ссв338929 0.1 1020181
10:00+16ссв3377100 0.1 1021626
13:00+18ссз125842 0.2 1021873
16:00+17зсз126184 0.0 1020829
19:00+15св136524 0.0 1020608
22:00+12св3473100 0.0 1022230
19 июня, сб
сб1901:00+12всв447383 0.0 1022209
04:00+11всв457856 0.0 1021201
07:00+10всв458125 0.0 1021174
10:00+15св235224 0.0 1022654
13:00+17с135527 0.0 1022940
16:00+18с345521 0.0 1020882
19:00+17с13519 0.0 1021708
22:00+13всв34658 0.0 1023314
20 июня, вс
вс2001:00+13в34676 0.0 1023110
04:00+13всв34735 0.0 102185
07:00+12всв457710 0.0 1022103
10:00+16всв13621 0.0 1023452
13:00+20с13452 0.0 1022696
16:00+20с03511 0.0 1021664
19:00+18всв13658 0.0 1021521
22:00+17св33631 0.0 1022217